sat.trackr.live / text

‹ back to catalog

STARLINK-1156

NORAD 45054 · 2020-006L

PAYLOAD ACTIVE UNKNOWN

§ Identity

Operator
Country
US
Launch date
2020-01-29
Launch site
AFETR
Launch vehicle
Mass (kg)
RCS (m²)

Purposes: comms

External: N2YO · Heavens-Above · Gunter

§ Orbital elements

Epoch: 2026-09-12T01:00:47.955744Z

Period
93.33 min
Inclination
53.1533°
Eccentricity
0.0001527
Mean motion
15.42987391 rev/d
Perigee alt
436.3 km
Apogee alt
438.3 km
Semi-major
6,815.4 km
B*
1.0506e-3
RAAN
128.3426°
Arg perigee
119.3175°
Mean anomaly
240.7984°
Rev number
36,517

§ Raw data

STARLINK-11561 45054U 20006L   26255.04222171  .00046875  00000+0  10506-2 0  99982 45054  53.1533 128.3426 0001527 119.3175 240.7984 15.42987391365173

JSON: /api/v1/satellites/45054 · /tle

For live sub-satellite position, see the globe view (requires WebGL).

§ Visibility from observer

Set your observer location to see the next 7 days of passes ≥ 10°. The values pass through the URL so the page stays shareable.

No JS? Fill the form by hand. The geolocation button needs JavaScript.